Location: Bathurst
(33.4193°S, 149.5775°E)
Time: 09:47:34
(UTC+10:00)

Explorer 7 - Pass Details

Date: 14 June 2021
Orbit: 484 x 676 km, 50.3° (Epoch: 02 August)

Event Time Altitude Azimuth Distance (km) Brightness Sun altitude
Rises 18:36:50 0° 239° (WSW) 2,838 11.1 -19.5°
Reaches altitude 10° 18:39:14 10° 248° (WSW) 1,965 10.4 -20.0°
Maximum altitude 18:43:17 33° 312° (NW) 1,066 8.8 -20.8°
Drops below altitude 10° 18:47:30 10° 15° (NNE) 2,044 9.7 -21.6°
Sets 18:50:03 0° 24° (NNE) 2,972 10.5 -22.2°
